Location: Waco, TX
(31.5480°N, 97.1670°W)
Time: 00:52:00
(UTC-06:00)

ISS - Pass Details

Date: 13 January 2018
Orbit: 402 x 407 km, 51.6° (Epoch: 21 January)

Event Time Altitude Azimuth Distance (km) Brightness Sun altitude
Rises 07:50:42 0° 310° (NW) 2,323 -0.6 3.3°
Reaches altitude 10° 07:52:49 10° 306° (NW) 1,461 -1.6 3.7°
Maximum altitude 07:56:01 53° 228° (SW) 502 -3.4 4.3°
Drops below altitude 10° 07:59:12 10° 150° (SSE) 1,456 0.2 4.9°
Sets 08:01:18 0° 145° (SE) 2,312 1.3 5.3°
